Year,Month,Day,Hour,Minute,Value (Times are PST for temperature in C)
2010,10,16,00,00,4.00
2010,10,16,00,01,4.00
2010,10,16,00,02,3.90
2010,10,16,00,03,3.90
2010,10,16,00,04,3.90
2010,10,16,00,05,3.90
2010,10,16,00,06,3.90
2010,10,16,00,07,3.90
2010,10,16,00,08,3.90
2010,10,16,00,09,3.90
2010,10,16,00,10,3.90
2010,10,16,00,11,3.90
2010,10,16,00,12,3.90
2010,10,16,00,13,3.90
2010,10,16,00,14,3.90
2010,10,16,00,15,3.80
2010,10,16,00,16,3.80
2010,10,16,00,17,3.80
2010,10,16,00,18,3.80
2010,10,16,00,19,3.80
2010,10,16,00,20,3.80
2010,10,16,00,21,3.80
2010,10,16,00,22,3.80
2010,10,16,00,23,3.80
2010,10,16,00,24,3.80
2010,10,16,00,25,3.80
2010,10,16,00,26,3.80
2010,10,16,00,27,3.80
2010,10,16,00,28,3.80
2010,10,16,00,29,3.80
2010,10,16,00,30,3.80
2010,10,16,00,31,3.80
2010,10,16,00,32,3.80
2010,10,16,00,33,3.80
2010,10,16,00,34,3.80
2010,10,16,00,35,3.80
2010,10,16,00,36,3.80
2010,10,16,00,37,3.80
2010,10,16,00,38,3.80
2010,10,16,00,39,3.80
2010,10,16,00,40,3.80
2010,10,16,00,41,3.70
2010,10,16,00,42,3.70
2010,10,16,00,43,3.70
2010,10,16,00,44,3.70
2010,10,16,00,45,3.70
2010,10,16,00,46,3.60
2010,10,16,00,47,3.60
2010,10,16,00,48,3.60
2010,10,16,00,49,3.60
2010,10,16,00,50,3.60
2010,10,16,00,51,3.60
2010,10,16,00,52,3.50
2010,10,16,00,53,3.50
2010,10,16,00,54,3.50
2010,10,16,00,55,3.40
2010,10,16,00,56,3.40
2010,10,16,00,57,3.40
2010,10,16,00,58,3.40
2010,10,16,00,59,3.40
2010,10,16,01,00,3.40
2010,10,16,01,01,3.40
2010,10,16,01,02,3.40
2010,10,16,01,03,3.40
2010,10,16,01,04,3.40
2010,10,16,01,05,3.40
2010,10,16,01,06,3.40
2010,10,16,01,07,3.40
2010,10,16,01,08,3.40
2010,10,16,01,09,3.40
2010,10,16,01,10,3.40
2010,10,16,01,11,3.40
2010,10,16,01,12,3.40
2010,10,16,01,13,3.40
2010,10,16,01,14,3.40
2010,10,16,01,15,3.40
2010,10,16,01,16,3.40
2010,10,16,01,17,3.40
2010,10,16,01,18,3.30
2010,10,16,01,19,3.30
2010,10,16,01,20,3.30
2010,10,16,01,21,3.30
2010,10,16,01,22,3.30
2010,10,16,01,23,3.30
2010,10,16,01,24,3.30
2010,10,16,01,25,3.30
2010,10,16,01,26,3.30
2010,10,16,01,27,3.30
2010,10,16,01,28,3.30
2010,10,16,01,29,3.20
2010,10,16,01,30,3.20
2010,10,16,01,31,3.20
2010,10,16,01,32,3.20
2010,10,16,01,33,3.20
2010,10,16,01,34,3.20
2010,10,16,01,35,3.20
2010,10,16,01,36,3.20
2010,10,16,01,37,3.20
2010,10,16,01,38,3.20
2010,10,16,01,39,3.20
2010,10,16,01,40,3.20
2010,10,16,01,41,3.20
2010,10,16,01,42,3.20
2010,10,16,01,43,3.20
2010,10,16,01,44,3.20
2010,10,16,01,45,3.20
2010,10,16,01,46,3.20
2010,10,16,01,47,3.20
2010,10,16,01,48,3.30
2010,10,16,01,49,3.30
2010,10,16,01,50,3.30
2010,10,16,01,51,3.30
2010,10,16,01,52,3.30
2010,10,16,01,53,3.30
2010,10,16,01,54,3.30
2010,10,16,01,55,3.30
2010,10,16,01,56,3.30
2010,10,16,01,57,3.40
2010,10,16,01,58,3.40
2010,10,16,01,59,3.40
2010,10,16,02,00,3.40
2010,10,16,02,01,3.40
2010,10,16,02,02,3.40
2010,10,16,02,03,3.40
2010,10,16,02,04,3.40
2010,10,16,02,05,3.40
2010,10,16,02,06,3.40
2010,10,16,02,07,3.40
2010,10,16,02,08,3.40
2010,10,16,02,09,3.40
2010,10,16,02,10,3.40
2010,10,16,02,11,3.40
2010,10,16,02,12,3.30
2010,10,16,02,13,3.30
2010,10,16,02,14,3.30
2010,10,16,02,15,3.30
2010,10,16,02,16,3.30
2010,10,16,02,17,3.30
2010,10,16,02,18,3.30
2010,10,16,02,19,3.30
2010,10,16,02,20,3.30
2010,10,16,02,21,3.30
2010,10,16,02,22,3.30
2010,10,16,02,23,3.30
2010,10,16,02,24,3.30
2010,10,16,02,25,3.20
2010,10,16,02,26,3.20
2010,10,16,02,27,3.20
2010,10,16,02,28,3.20
2010,10,16,02,29,3.20
2010,10,16,02,30,3.20
2010,10,16,02,31,3.20
2010,10,16,02,32,3.20
2010,10,16,02,33,3.20
2010,10,16,02,34,3.20
2010,10,16,02,35,3.20
2010,10,16,02,36,3.30
2010,10,16,02,37,3.30
2010,10,16,02,38,3.30
2010,10,16,02,39,3.20
2010,10,16,02,40,3.20
2010,10,16,02,41,3.20
2010,10,16,02,42,3.20
2010,10,16,02,43,3.20
2010,10,16,02,44,3.20
2010,10,16,02,45,3.20
2010,10,16,02,46,3.20
2010,10,16,02,47,3.20
2010,10,16,02,48,3.20
2010,10,16,02,49,3.20
2010,10,16,02,50,3.20
2010,10,16,02,51,3.20
2010,10,16,02,52,3.20
2010,10,16,02,53,3.10
2010,10,16,02,54,3.10
2010,10,16,02,55,3.10
2010,10,16,02,56,3.10
2010,10,16,02,57,3.10
2010,10,16,02,58,3.10
2010,10,16,02,59,3.10
2010,10,16,03,00,3.10
2010,10,16,03,01,3.20
2010,10,16,03,02,3.20
2010,10,16,03,03,3.20
2010,10,16,03,06,3.20
2010,10,16,03,07,3.30
2010,10,16,03,08,3.30
2010,10,16,03,09,3.30
2010,10,16,03,10,3.30
2010,10,16,03,11,3.30
2010,10,16,03,12,3.30
2010,10,16,03,13,3.30
2010,10,16,03,14,3.30
2010,10,16,03,15,3.30
2010,10,16,03,16,3.30
2010,10,16,03,17,3.30
2010,10,16,03,18,3.30
2010,10,16,03,19,3.30
2010,10,16,03,20,3.40
2010,10,16,03,21,3.40
2010,10,16,03,22,3.40
2010,10,16,03,23,3.40
2010,10,16,03,24,3.40
2010,10,16,03,25,3.50
2010,10,16,03,26,3.50
2010,10,16,03,27,3.50
2010,10,16,03,28,3.60
2010,10,16,03,29,3.60
2010,10,16,03,30,3.60
2010,10,16,03,31,3.60
2010,10,16,03,32,3.70
2010,10,16,03,33,3.70
2010,10,16,03,34,3.70
2010,10,16,03,35,3.70
2010,10,16,03,36,3.80
2010,10,16,03,37,3.80
2010,10,16,03,38,3.80
2010,10,16,03,39,3.80
2010,10,16,03,40,3.80
2010,10,16,03,41,3.90
2010,10,16,03,42,3.90
2010,10,16,03,43,3.90
2010,10,16,03,44,3.90
2010,10,16,03,45,4.00
2010,10,16,03,46,4.00
2010,10,16,03,47,4.00
2010,10,16,03,48,4.10
2010,10,16,03,49,4.10
2010,10,16,03,50,4.10
2010,10,16,03,51,4.10
2010,10,16,03,52,4.10
2010,10,16,03,53,4.10
2010,10,16,03,54,4.10
2010,10,16,03,55,4.10
2010,10,16,03,56,4.20
2010,10,16,03,57,4.20
2010,10,16,03,58,4.20
2010,10,16,03,59,4.20
2010,10,16,04,00,4.20
2010,10,16,04,01,4.20
2010,10,16,04,02,4.20
2010,10,16,04,03,4.20
2010,10,16,04,04,4.20
2010,10,16,04,05,4.20
2010,10,16,04,06,4.20
2010,10,16,04,07,4.20
2010,10,16,04,08,4.20
2010,10,16,04,09,4.20
2010,10,16,04,10,4.20
2010,10,16,04,11,4.20
2010,10,16,04,12,4.20
2010,10,16,04,13,4.20
2010,10,16,04,14,4.20
2010,10,16,04,15,4.20
2010,10,16,04,16,4.20
2010,10,16,04,17,4.20
2010,10,16,04,18,4.20
2010,10,16,04,19,4.20
2010,10,16,04,20,4.30
2010,10,16,04,21,4.30
2010,10,16,04,22,4.30
2010,10,16,04,23,4.30
2010,10,16,04,24,4.30
2010,10,16,04,25,4.30
2010,10,16,04,26,4.30
2010,10,16,04,27,4.30
2010,10,16,04,28,4.30
2010,10,16,04,29,4.30
2010,10,16,04,30,4.30
2010,10,16,04,31,4.30
2010,10,16,04,32,4.30
2010,10,16,04,33,4.30
2010,10,16,04,34,4.30
2010,10,16,04,35,4.30
2010,10,16,04,36,4.30
2010,10,16,04,37,4.30
2010,10,16,04,38,4.30
2010,10,16,04,39,4.30
2010,10,16,04,40,4.30
2010,10,16,04,41,4.30
2010,10,16,04,42,4.30
2010,10,16,04,43,4.30
2010,10,16,04,44,4.30
2010,10,16,04,45,4.30
2010,10,16,04,46,4.20
2010,10,16,04,47,4.20
2010,10,16,04,48,4.30
2010,10,16,04,49,4.30
2010,10,16,04,50,4.30
2010,10,16,04,51,4.30
2010,10,16,04,52,4.30
2010,10,16,04,53,4.30
2010,10,16,04,54,4.30
2010,10,16,04,55,4.30
2010,10,16,04,56,4.30
2010,10,16,04,57,4.30
2010,10,16,04,58,4.30
2010,10,16,04,59,4.30
2010,10,16,05,00,4.30
2010,10,16,05,01,4.30
2010,10,16,05,02,4.30
2010,10,16,05,03,4.30
2010,10,16,05,04,4.30
2010,10,16,05,05,4.30
2010,10,16,05,06,4.30
2010,10,16,05,07,4.30
2010,10,16,05,08,4.30
2010,10,16,05,09,4.30
2010,10,16,05,10,4.30
2010,10,16,05,11,4.30
2010,10,16,05,12,4.30
2010,10,16,05,13,4.30
2010,10,16,05,14,4.30
2010,10,16,05,15,4.30
2010,10,16,05,16,4.30
2010,10,16,05,17,4.30
2010,10,16,05,18,4.30
2010,10,16,05,19,4.30
2010,10,16,05,20,4.30
2010,10,16,05,21,4.30
2010,10,16,05,22,4.30
2010,10,16,05,23,4.30
2010,10,16,05,24,4.30
2010,10,16,05,25,4.30
2010,10,16,05,26,4.30
2010,10,16,05,27,4.30
2010,10,16,05,28,4.30
2010,10,16,05,29,4.30
2010,10,16,05,30,4.30
2010,10,16,05,31,4.30
2010,10,16,05,32,4.30
2010,10,16,05,33,4.30
2010,10,16,05,34,4.30
2010,10,16,05,35,4.30
2010,10,16,05,36,4.30
2010,10,16,05,37,4.30
2010,10,16,05,38,4.30
2010,10,16,05,39,4.30
2010,10,16,05,40,4.30
2010,10,16,05,41,4.30
2010,10,16,05,42,4.30
2010,10,16,05,43,4.30
2010,10,16,05,44,4.30
2010,10,16,05,45,4.30
2010,10,16,05,46,4.30
2010,10,16,05,47,4.30
2010,10,16,05,48,4.30
2010,10,16,05,49,4.30
2010,10,16,05,50,4.30
2010,10,16,05,51,4.30
2010,10,16,05,52,4.30
2010,10,16,05,53,4.30
2010,10,16,05,54,4.30
2010,10,16,05,55,4.30
2010,10,16,05,56,4.30
2010,10,16,05,57,4.30
2010,10,16,05,58,4.30
2010,10,16,05,59,4.30
2010,10,16,06,00,4.30
2010,10,16,06,01,4.30
2010,10,16,06,02,4.30
2010,10,16,06,03,4.30
2010,10,16,06,04,4.30
2010,10,16,06,05,4.30
2010,10,16,06,06,4.30
2010,10,16,06,07,4.30
2010,10,16,06,08,4.30
2010,10,16,06,09,4.30
2010,10,16,06,10,4.30
2010,10,16,06,11,4.30
2010,10,16,06,12,4.30
2010,10,16,06,13,4.30
2010,10,16,06,14,4.30
2010,10,16,06,15,4.30
2010,10,16,06,16,4.30
2010,10,16,06,17,4.20
2010,10,16,06,18,4.20
2010,10,16,06,19,4.20
2010,10,16,06,20,4.20
2010,10,16,06,21,4.20
2010,10,16,06,22,4.20
2010,10,16,06,23,4.20
2010,10,16,06,24,4.20
2010,10,16,06,25,4.20
2010,10,16,06,26,4.20
2010,10,16,06,27,4.20
2010,10,16,06,28,4.20
2010,10,16,06,29,4.20
2010,10,16,06,30,4.20
2010,10,16,06,31,4.20
2010,10,16,06,32,4.20
2010,10,16,06,33,4.20
2010,10,16,06,34,4.20
2010,10,16,06,35,4.20
2010,10,16,06,36,4.20
2010,10,16,06,37,4.20
2010,10,16,06,38,4.20
2010,10,16,06,39,4.20
2010,10,16,06,40,4.20
2010,10,16,06,41,4.20
2010,10,16,06,42,4.20
2010,10,16,06,43,4.20
2010,10,16,06,44,4.20
2010,10,16,06,45,4.20
2010,10,16,06,46,4.20
2010,10,16,06,47,4.20
2010,10,16,06,48,4.20
2010,10,16,06,49,4.20
2010,10,16,06,50,4.20
2010,10,16,06,51,4.10
2010,10,16,06,52,4.10
2010,10,16,06,53,4.10
2010,10,16,06,54,4.10
2010,10,16,06,55,4.10
2010,10,16,06,56,4.10
2010,10,16,06,57,4.10
2010,10,16,06,58,4.10
2010,10,16,06,59,4.10
2010,10,16,07,00,4.10
2010,10,16,07,01,4.10
2010,10,16,07,02,4.10
2010,10,16,07,03,4.10
2010,10,16,07,04,4.10
2010,10,16,07,05,4.10
2010,10,16,07,06,4.10
2010,10,16,07,07,4.10
2010,10,16,07,08,4.10
2010,10,16,07,09,4.10
2010,10,16,07,10,4.20
2010,10,16,07,11,4.20
2010,10,16,07,12,4.10
2010,10,16,07,13,4.10
2010,10,16,07,14,4.10
2010,10,16,07,15,4.10
2010,10,16,07,16,4.10
2010,10,16,07,17,4.10
2010,10,16,07,18,4.10
2010,10,16,07,19,4.10
2010,10,16,07,20,4.10
2010,10,16,07,21,4.10
2010,10,16,07,22,4.10
2010,10,16,07,23,4.20
2010,10,16,07,24,4.20
2010,10,16,07,25,4.20
2010,10,16,07,26,4.20
2010,10,16,07,27,4.20
2010,10,16,07,28,4.20
2010,10,16,07,29,4.20
2010,10,16,07,30,4.20
2010,10,16,07,31,4.20
2010,10,16,07,32,4.20
2010,10,16,07,33,4.20
2010,10,16,07,34,4.20
2010,10,16,07,35,4.20
2010,10,16,07,36,4.20
2010,10,16,07,37,4.20
2010,10,16,07,38,4.20
2010,10,16,07,39,4.20
2010,10,16,07,40,4.20
2010,10,16,07,41,4.20
2010,10,16,07,42,4.20
2010,10,16,07,43,4.20
2010,10,16,07,44,4.20
2010,10,16,07,45,4.20
2010,10,16,07,46,4.20
2010,10,16,07,47,4.20
2010,10,16,07,48,4.20
2010,10,16,07,49,4.20
2010,10,16,07,50,4.20
2010,10,16,07,51,4.20
2010,10,16,07,52,4.20
2010,10,16,07,53,4.20
2010,10,16,07,54,4.20
2010,10,16,07,55,4.20
2010,10,16,07,56,4.20
2010,10,16,07,57,4.20
2010,10,16,07,58,4.20
2010,10,16,07,59,4.20
2010,10,16,08,00,4.20
2010,10,16,08,01,4.20
2010,10,16,08,02,4.20
2010,10,16,08,03,4.20
2010,10,16,08,04,4.20
2010,10,16,08,05,4.20
2010,10,16,08,06,4.20
2010,10,16,08,07,4.20
2010,10,16,08,08,4.20
2010,10,16,08,09,4.20
2010,10,16,08,10,4.20
2010,10,16,08,11,4.20
2010,10,16,08,12,4.20
2010,10,16,08,13,4.20
2010,10,16,08,14,4.20
2010,10,16,08,15,4.20
2010,10,16,08,16,4.20
2010,10,16,08,17,4.20
2010,10,16,08,18,4.20
2010,10,16,08,19,4.20
2010,10,16,08,20,4.20
2010,10,16,08,21,4.20
2010,10,16,08,22,4.20
2010,10,16,08,23,4.20
2010,10,16,08,24,4.20
2010,10,16,08,25,4.20
2010,10,16,08,26,4.20
2010,10,16,08,27,4.20
2010,10,16,08,28,4.20
2010,10,16,08,29,4.20
2010,10,16,08,30,4.20
2010,10,16,08,31,4.20
2010,10,16,08,32,4.20
2010,10,16,08,33,4.20
2010,10,16,08,34,4.20
2010,10,16,08,35,4.20
2010,10,16,08,36,4.20
2010,10,16,08,37,4.10
2010,10,16,08,38,4.10
2010,10,16,08,39,4.10
2010,10,16,08,40,4.10
2010,10,16,08,41,4.10
2010,10,16,08,42,4.10
2010,10,16,08,43,4.10
2010,10,16,08,44,4.10
2010,10,16,08,45,4.10
2010,10,16,08,46,4.10
2010,10,16,08,47,4.10
2010,10,16,08,48,4.10
2010,10,16,08,49,4.10
2010,10,16,08,50,4.10
2010,10,16,08,51,4.20
2010,10,16,08,52,4.20
2010,10,16,08,53,4.20
2010,10,16,08,54,4.20
2010,10,16,08,55,4.20
2010,10,16,08,56,4.20
2010,10,16,08,57,4.20
2010,10,16,08,58,4.20
2010,10,16,08,59,4.20
2010,10,16,09,00,4.20
2010,10,16,09,01,4.30
2010,10,16,09,02,4.30
2010,10,16,09,03,4.30
2010,10,16,09,04,4.30
2010,10,16,09,05,4.30
2010,10,16,09,06,4.30
2010,10,16,09,07,4.30
2010,10,16,09,08,4.30
2010,10,16,09,09,4.30
2010,10,16,09,10,4.40
2010,10,16,09,11,4.40
2010,10,16,09,12,4.40
2010,10,16,09,13,4.40
2010,10,16,09,14,4.40
2010,10,16,09,15,4.40
2010,10,16,09,16,4.40
2010,10,16,09,17,4.40
2010,10,16,09,18,4.40
2010,10,16,09,19,4.40
2010,10,16,09,20,4.40
2010,10,16,09,21,4.40
2010,10,16,09,22,4.40
2010,10,16,09,23,4.40
2010,10,16,09,24,4.30
2010,10,16,09,25,4.30
2010,10,16,09,26,4.30
2010,10,16,09,27,4.30
2010,10,16,09,28,4.30
2010,10,16,09,29,4.30
2010,10,16,09,30,4.30
2010,10,16,09,31,4.30
2010,10,16,09,32,4.30
2010,10,16,09,33,4.30
2010,10,16,09,34,4.30
2010,10,16,09,35,4.30
2010,10,16,09,36,4.30
2010,10,16,09,37,4.30
2010,10,16,09,38,4.30
2010,10,16,09,39,4.30
2010,10,16,09,40,4.30
2010,10,16,09,41,4.30
2010,10,16,09,42,4.30
2010,10,16,09,43,4.30
2010,10,16,09,44,4.30
2010,10,16,09,45,4.30
2010,10,16,09,46,4.30
2010,10,16,09,47,4.30
2010,10,16,09,48,4.30
2010,10,16,09,49,4.30
2010,10,16,09,50,4.30
2010,10,16,09,51,4.30
2010,10,16,09,52,4.30
2010,10,16,09,53,4.30
2010,10,16,09,54,4.30
2010,10,16,09,55,4.30
2010,10,16,09,56,4.30
2010,10,16,09,57,4.30
2010,10,16,09,58,4.30
2010,10,16,09,59,4.30
2010,10,16,10,00,4.30
2010,10,16,10,01,4.30
2010,10,16,10,02,4.30
2010,10,16,10,03,4.30
2010,10,16,10,04,4.40
2010,10,16,10,05,4.40
2010,10,16,10,06,4.40
2010,10,16,10,07,4.40
2010,10,16,10,08,4.40
2010,10,16,10,09,4.40
2010,10,16,10,10,4.40
2010,10,16,10,11,4.50
2010,10,16,10,12,4.40
2010,10,16,10,13,4.40
2010,10,16,10,14,4.40
2010,10,16,10,15,4.50
2010,10,16,10,16,4.50
2010,10,16,10,17,4.50
2010,10,16,10,18,4.50
2010,10,16,10,19,4.50
2010,10,16,10,20,4.50
2010,10,16,10,21,4.50
2010,10,16,10,22,4.50
2010,10,16,10,23,4.50
2010,10,16,10,24,4.50
2010,10,16,10,25,4.40
2010,10,16,10,26,4.40
2010,10,16,10,27,4.40
2010,10,16,10,28,4.40
2010,10,16,10,29,4.40
2010,10,16,10,30,4.40
2010,10,16,10,31,4.40
2010,10,16,10,32,4.40
2010,10,16,10,33,4.40
2010,10,16,10,34,4.40
2010,10,16,10,35,4.40
2010,10,16,10,36,4.40
2010,10,16,10,37,4.40
2010,10,16,10,38,4.40
2010,10,16,10,39,4.40
2010,10,16,10,40,4.40
2010,10,16,10,41,4.40
2010,10,16,10,42,4.50
2010,10,16,10,43,4.50
2010,10,16,10,44,4.50
2010,10,16,10,45,4.50
2010,10,16,10,46,4.50
2010,10,16,10,47,4.50
2010,10,16,10,48,4.50
2010,10,16,10,49,4.50
2010,10,16,10,50,4.50
2010,10,16,10,51,4.40
2010,10,16,10,52,4.50
2010,10,16,10,53,4.50
2010,10,16,10,54,4.50
2010,10,16,10,55,4.50
2010,10,16,10,56,4.50
2010,10,16,10,57,4.50
2010,10,16,10,58,4.50
2010,10,16,10,59,4.50
2010,10,16,11,00,4.50
2010,10,16,11,01,4.50
2010,10,16,11,02,4.50
2010,10,16,11,03,4.60
2010,10,16,11,04,4.60
2010,10,16,11,05,4.60
2010,10,16,11,06,4.60
2010,10,16,11,07,4.60
2010,10,16,11,08,4.60
2010,10,16,11,09,4.60
2010,10,16,11,10,4.60
2010,10,16,11,11,4.60
2010,10,16,11,12,4.70
2010,10,16,11,13,4.70
2010,10,16,11,14,4.70
2010,10,16,11,15,4.70
2010,10,16,11,16,4.70
2010,10,16,11,17,4.70
2010,10,16,11,18,4.70
2010,10,16,11,19,4.70
2010,10,16,11,20,4.70
2010,10,16,11,21,4.70
2010,10,16,11,22,4.70
2010,10,16,11,23,4.70
2010,10,16,11,24,4.70
2010,10,16,11,25,4.70
2010,10,16,11,26,4.70
2010,10,16,11,27,4.70
2010,10,16,11,28,4.70
2010,10,16,11,29,4.70
2010,10,16,11,30,4.80
2010,10,16,11,31,4.80
2010,10,16,11,32,4.80
2010,10,16,11,33,4.80
2010,10,16,11,34,4.80
2010,10,16,11,35,4.80
2010,10,16,11,36,4.80
2010,10,16,11,37,4.80
2010,10,16,11,38,4.80
2010,10,16,11,39,4.80
2010,10,16,11,40,4.80
2010,10,16,11,41,4.90
2010,10,16,11,42,4.90
2010,10,16,11,43,4.90
2010,10,16,11,44,4.90
2010,10,16,11,45,4.90
2010,10,16,11,46,4.90
2010,10,16,11,47,4.90
2010,10,16,11,48,5.00
2010,10,16,11,49,5.00
2010,10,16,11,50,5.00
2010,10,16,11,51,5.00
2010,10,16,11,52,5.10
2010,10,16,11,53,5.10
2010,10,16,11,54,5.10
2010,10,16,11,55,5.10
2010,10,16,11,56,5.10
2010,10,16,11,57,5.10
2010,10,16,11,58,5.10
2010,10,16,11,59,5.10
2010,10,16,12,00,5.10
2010,10,16,12,01,5.20
2010,10,16,12,02,5.20
2010,10,16,12,03,5.20
2010,10,16,12,04,5.20
2010,10,16,12,05,5.20
2010,10,16,12,06,5.30
2010,10,16,12,07,5.30
2010,10,16,12,08,5.30
2010,10,16,12,09,5.30
2010,10,16,12,10,5.30
2010,10,16,12,11,5.30
2010,10,16,12,12,5.40
2010,10,16,12,13,5.40
2010,10,16,12,14,5.40
2010,10,16,12,15,5.40
2010,10,16,12,16,5.40
2010,10,16,12,17,5.40
2010,10,16,12,18,5.40
2010,10,16,12,19,5.40
2010,10,16,12,20,5.40
2010,10,16,12,21,5.40
2010,10,16,12,22,5.40
2010,10,16,12,23,5.40
2010,10,16,12,24,5.40
2010,10,16,12,25,5.40
2010,10,16,12,26,5.40
2010,10,16,12,27,5.40
2010,10,16,12,28,5.40
2010,10,16,12,29,5.40
2010,10,16,12,30,5.40
2010,10,16,12,31,5.50
2010,10,16,12,32,5.50
2010,10,16,12,33,5.50
2010,10,16,12,34,5.50
2010,10,16,12,35,5.50
2010,10,16,12,36,5.50
2010,10,16,12,37,5.60
2010,10,16,12,38,5.60
2010,10,16,12,39,5.60
2010,10,16,12,40,5.70
2010,10,16,12,41,5.70
2010,10,16,12,42,5.70
2010,10,16,12,43,5.70
2010,10,16,12,44,5.80
2010,10,16,12,45,5.80
2010,10,16,12,46,5.80
2010,10,16,12,47,5.80
2010,10,16,12,48,5.80
2010,10,16,12,49,5.90
2010,10,16,12,50,5.90
2010,10,16,12,51,5.90
2010,10,16,12,52,6.00
2010,10,16,12,53,6.00
2010,10,16,12,54,6.10
2010,10,16,12,55,6.20
2010,10,16,12,56,6.20
2010,10,16,12,57,6.30
2010,10,16,12,58,6.40
2010,10,16,12,59,6.50
2010,10,16,13,00,6.50
2010,10,16,13,01,6.60
2010,10,16,13,02,6.60
2010,10,16,13,03,6.60
2010,10,16,13,04,6.70
2010,10,16,13,05,6.70
2010,10,16,13,06,6.70
2010,10,16,13,07,6.70
2010,10,16,13,08,6.70
2010,10,16,13,09,6.70
2010,10,16,13,10,6.80
2010,10,16,13,11,6.80
2010,10,16,13,12,6.90
2010,10,16,13,13,7.00
2010,10,16,13,14,7.00
2010,10,16,13,15,7.10
2010,10,16,13,16,7.10
2010,10,16,13,17,7.20
2010,10,16,13,18,7.20
2010,10,16,13,19,7.30
2010,10,16,13,20,7.40
2010,10,16,13,21,7.40
2010,10,16,13,22,7.50
2010,10,16,13,23,7.60
2010,10,16,13,24,7.60
2010,10,16,13,25,7.70
2010,10,16,13,26,7.70
2010,10,16,13,27,7.70
2010,10,16,13,28,7.70
2010,10,16,13,29,7.70
2010,10,16,13,30,7.70
2010,10,16,13,31,7.70
2010,10,16,13,32,7.70
2010,10,16,13,33,7.70
2010,10,16,13,34,7.70
2010,10,16,13,35,7.70
2010,10,16,13,36,7.80
2010,10,16,13,37,7.80
2010,10,16,13,38,7.90
2010,10,16,13,39,8.00
2010,10,16,13,40,8.00
2010,10,16,13,41,8.10
2010,10,16,13,42,8.10
2010,10,16,13,43,8.20
2010,10,16,13,44,8.20
2010,10,16,13,45,8.20
2010,10,16,13,46,8.20
2010,10,16,13,47,8.20
2010,10,16,13,48,8.20
2010,10,16,13,49,8.30
2010,10,16,13,50,8.30
2010,10,16,13,51,8.30
2010,10,16,13,52,8.40
2010,10,16,13,53,8.40
2010,10,16,13,54,8.50
2010,10,16,13,55,8.50
2010,10,16,13,56,8.60
2010,10,16,13,57,8.60
2010,10,16,13,58,8.60
2010,10,16,13,59,8.70
2010,10,16,14,00,8.70
2010,10,16,14,01,8.70
2010,10,16,14,02,8.70
2010,10,16,14,03,8.80
2010,10,16,14,04,8.80
2010,10,16,14,05,8.80
2010,10,16,14,06,8.90
2010,10,16,14,07,8.90
2010,10,16,14,08,8.90
2010,10,16,14,09,9.00
2010,10,16,14,10,9.00
2010,10,16,14,11,9.10
2010,10,16,14,12,9.20
2010,10,16,14,13,9.30
2010,10,16,14,14,9.30
2010,10,16,14,15,9.40
2010,10,16,14,16,9.40
2010,10,16,14,17,9.40
2010,10,16,14,18,9.40
2010,10,16,14,19,9.40
2010,10,16,14,20,9.40
2010,10,16,14,21,9.40
2010,10,16,14,22,9.40
2010,10,16,14,23,9.50
2010,10,16,14,24,9.60
2010,10,16,14,25,9.60
2010,10,16,14,26,9.60
2010,10,16,14,27,9.70
2010,10,16,14,28,9.70
2010,10,16,14,29,9.70
2010,10,16,14,30,9.80
2010,10,16,14,31,9.80
2010,10,16,14,32,9.80
2010,10,16,14,33,9.80
2010,10,16,14,34,9.80
2010,10,16,14,35,9.80
2010,10,16,14,36,9.80
2010,10,16,14,37,9.80
2010,10,16,14,38,9.80
2010,10,16,14,39,9.80
2010,10,16,14,40,9.80
2010,10,16,14,41,9.80
2010,10,16,14,42,9.90
2010,10,16,14,43,9.90
2010,10,16,14,44,9.90
2010,10,16,14,45,10.00
2010,10,16,14,46,10.00
2010,10,16,14,47,10.10
2010,10,16,14,48,10.20
2010,10,16,14,49,10.30
2010,10,16,14,50,10.30
2010,10,16,14,51,10.30
2010,10,16,14,52,10.40
2010,10,16,14,53,10.40
2010,10,16,14,54,10.40
2010,10,16,14,55,10.40
2010,10,16,14,56,10.40
2010,10,16,14,57,10.40
2010,10,16,14,58,10.40
2010,10,16,14,59,10.50
2010,10,16,15,00,10.50
2010,10,16,15,01,10.50
2010,10,16,15,02,10.50
2010,10,16,15,03,10.60
2010,10,16,15,04,10.60
2010,10,16,15,05,10.60
2010,10,16,15,06,10.60
2010,10,16,15,07,10.70
2010,10,16,15,08,10.70
2010,10,16,15,09,10.80
2010,10,16,15,10,10.90
2010,10,16,15,11,11.00
2010,10,16,15,12,11.10
2010,10,16,15,13,11.10
2010,10,16,15,14,11.20
2010,10,16,15,15,11.20
2010,10,16,15,16,11.30
2010,10,16,15,17,11.40
2010,10,16,15,18,11.40
2010,10,16,15,19,11.40
2010,10,16,15,20,11.50
2010,10,16,15,21,11.50
2010,10,16,15,22,11.50
2010,10,16,15,23,11.50
2010,10,16,15,24,11.40
2010,10,16,15,25,11.40
2010,10,16,15,26,11.40
2010,10,16,15,27,11.40
2010,10,16,15,28,11.40
2010,10,16,15,29,11.40
2010,10,16,15,30,11.40
2010,10,16,15,31,11.40
2010,10,16,15,32,11.40
2010,10,16,15,33,11.40
2010,10,16,15,34,11.50
2010,10,16,15,35,11.50
2010,10,16,15,36,11.50
2010,10,16,15,37,11.50
2010,10,16,15,38,11.50
2010,10,16,15,39,11.60
2010,10,16,15,40,11.60
2010,10,16,15,41,11.60
2010,10,16,15,42,11.60
2010,10,16,15,43,11.70
2010,10,16,15,44,11.70
2010,10,16,15,45,11.70
2010,10,16,15,46,11.70
2010,10,16,15,47,11.70
2010,10,16,15,48,11.70
2010,10,16,15,49,11.70
2010,10,16,15,50,11.70
2010,10,16,15,51,11.80
2010,10,16,15,52,11.90
2010,10,16,15,53,11.90
2010,10,16,15,54,12.00
2010,10,16,15,55,12.10
2010,10,16,15,56,12.10
2010,10,16,15,57,12.20
2010,10,16,15,58,12.20
2010,10,16,15,59,12.20
2010,10,16,16,00,12.20
2010,10,16,16,01,12.30
2010,10,16,16,02,12.30
2010,10,16,16,03,12.30
2010,10,16,16,04,12.30
2010,10,16,16,05,12.30
2010,10,16,16,06,12.30
2010,10,16,16,07,12.30
2010,10,16,16,08,12.30
2010,10,16,16,09,12.30
2010,10,16,16,10,12.30
2010,10,16,16,11,12.30
2010,10,16,16,12,12.30
2010,10,16,16,13,12.30
2010,10,16,16,14,12.30
2010,10,16,16,15,12.30
2010,10,16,16,16,12.30
2010,10,16,16,17,12.40
2010,10,16,16,18,12.40
2010,10,16,16,19,12.50
2010,10,16,16,20,12.60
2010,10,16,16,21,12.60
2010,10,16,16,22,12.70
2010,10,16,16,23,12.70
2010,10,16,16,24,12.70
2010,10,16,16,25,12.70
2010,10,16,16,26,12.70
2010,10,16,16,27,12.70
2010,10,16,16,28,12.70
2010,10,16,16,29,12.70
2010,10,16,16,30,12.80
2010,10,16,16,31,12.80
2010,10,16,16,32,12.80
2010,10,16,16,33,12.70
2010,10,16,16,34,12.70
2010,10,16,16,35,12.70
2010,10,16,16,36,12.70
2010,10,16,16,37,12.60
2010,10,16,16,38,12.60
2010,10,16,16,39,12.60
2010,10,16,16,40,12.60
2010,10,16,16,41,12.60
2010,10,16,16,42,12.60
2010,10,16,16,43,12.60
2010,10,16,16,44,12.60
2010,10,16,16,45,12.70
2010,10,16,16,46,12.70
2010,10,16,16,47,12.70
2010,10,16,16,48,12.70
2010,10,16,16,49,12.70
2010,10,16,16,50,12.70
2010,10,16,16,51,12.70
2010,10,16,16,52,12.70
2010,10,16,16,53,12.80
2010,10,16,16,54,12.80
2010,10,16,16,55,12.90
2010,10,16,16,56,12.90
2010,10,16,16,57,12.90
2010,10,16,16,58,12.90
2010,10,16,16,59,12.90
2010,10,16,17,00,12.90
2010,10,16,17,01,12.90
2010,10,16,17,02,12.90
2010,10,16,17,03,12.90
2010,10,16,17,04,12.90
2010,10,16,17,05,12.80
2010,10,16,17,06,12.80
2010,10,16,17,07,12.80
2010,10,16,17,08,12.70
2010,10,16,17,09,12.70
2010,10,16,17,10,12.70
2010,10,16,17,11,12.70
2010,10,16,17,12,12.60
2010,10,16,17,13,12.60
2010,10,16,17,14,12.60
2010,10,16,17,15,12.60
2010,10,16,17,16,12.50
2010,10,16,17,17,12.50
2010,10,16,17,18,12.40
2010,10,16,17,19,12.30
2010,10,16,17,20,12.30
2010,10,16,17,21,12.30
2010,10,16,17,22,12.20
2010,10,16,17,23,12.20
2010,10,16,17,24,12.10
2010,10,16,17,25,12.10
2010,10,16,17,26,12.00
2010,10,16,17,27,11.90
2010,10,16,17,28,11.90
2010,10,16,17,29,11.90
2010,10,16,17,30,11.80
2010,10,16,17,31,11.80
2010,10,16,17,32,11.80
2010,10,16,17,33,11.70
2010,10,16,17,34,11.70
2010,10,16,17,35,11.60
2010,10,16,17,36,11.60
2010,10,16,17,37,11.50
2010,10,16,17,38,11.50
2010,10,16,17,39,11.50
2010,10,16,17,40,11.50
2010,10,16,17,41,11.40
2010,10,16,17,42,11.40
2010,10,16,17,43,11.40
2010,10,16,17,44,11.40
2010,10,16,17,45,11.30
2010,10,16,17,46,11.30
2010,10,16,17,47,11.20
2010,10,16,17,48,11.20
2010,10,16,17,49,11.20
2010,10,16,17,50,11.10
2010,10,16,17,51,11.10
2010,10,16,17,52,11.10
2010,10,16,17,53,11.00
2010,10,16,17,54,10.90
2010,10,16,17,55,10.90
2010,10,16,17,56,10.80
2010,10,16,17,57,10.80
2010,10,16,17,58,10.70
2010,10,16,17,59,10.60